Overview Statistics Trail Chart Weather Telemetry Raw packets
 

This is the latest recevied weather packets stored in our database for station/object W5LND-10. If no packets are shown the sender has not sent any weather packets the latest 10 day(s).

<< 5 6 7 8 9 10 11 >>
Time Temp. Humidity Pressure Rain* Wind** Luminosity Snow
1788571224 29.44° C 54% 1004.8 hPa 0 mm - 0 W/m² -
1788570924 29.44° C 54% 1004.7 hPa 0 mm - 0 W/m² -
1788570635 29.44° C 54% 1004.9 hPa 0 mm - 5 W/m² -
1788570324 29.44° C 54% 1004.8 hPa 0 mm - 33 W/m² -
1788570024 29.44° C 54% 1004.8 hPa 0 mm - 42 W/m² -
1788569724 29.44° C 53% 1004.7 hPa 0 mm - 47 W/m² -
1788569425 29.44° C 53% 1004.8 hPa 0 mm - 56 W/m² -
1788569125 29.44° C 52% 1004.7 hPa 0 mm - 63 W/m² -
1788568853 30° C 51% 1004.7 hPa 0 mm - 70 W/m² -
1788568525 30.56° C 50% 1004.6 hPa 0 mm - 79 W/m² -
1788568225 31.11° C 50% 1004.6 hPa 0 mm - 84 W/m² -
1788567925 31.11° C 49% 1004.5 hPa 0 mm - 93 W/m² -
1788567625 31.11° C 48% 1004.2 hPa 0 mm - 105 W/m² -
1788567325 31.67° C 47% 1004.1 hPa 0 mm - 102 W/m² -
1788567025 31.67° C 47% 1004.1 hPa 0 mm - 104 W/m² -
1788566725 32.22° C 46% 1004.1 hPa 0 mm - 100 W/m² -
1788566425 32.78° C 45% 1004 hPa 0 mm - 128 W/m² -
1788566125 32.78° C 44% 1004 hPa 0 mm - 100 W/m² -
1788565825 32.78° C 43% 1004 hPa 0 mm - 109 W/m² -
1788565525 32.78° C 41% 1004.1 hPa 0 mm - 105 W/m² -
1788565225 32.78° C 40% 1004 hPa 0 mm - 113 W/m² -
1788564925 33.33° C 39% 1003.9 hPa 0 mm - 105 W/m² -
1788564625 33.33° C 38% 1003.8 hPa 0 mm - 114 W/m² -
1788564325 33.33° C 38% 1003.7 hPa 0 mm - 120 W/m² -
1788564025 33.33° C 38% 1003.7 hPa 0 mm - 241 W/m² -

* Rain latest hour (hover to see other rain measurements)
** Current wind speed in m/s (hover to see current wind gust speed)